EW5684 Weather Reports


Display with metric or nautical units.
time (UTC)temp
F
wind
direction
speed
MPH
gust
MPH
rain 1hr
in
rain 24hr
in
rain mn
in
humidity
%
barometer
mb
20260507025457 53 0 3.0 6.0 0.00 0.28 0.00 57 1012.4
20260507024955 53 0 4.0 5.0 0.00 0.28 0.00 57 1012.4
20260507024456 53 0 3.0 5.0 0.00 0.28 0.00 57 1012.5
20260507023956 53 0 2.0 7.0 0.00 0.28 0.00 57 1012.5
20260507023456 54 0 4.0 9.0 0.00 0.28 0.00 56 1012.4
20260507022955 54 0 7.0 9.0 0.00 0.28 0.00 56 1012.5
20260507022456 54 0 5.0 6.0 0.00 0.28 0.00 56 1012.4
20260507021955 54 0 3.0 10.0 0.00 0.28 0.00 56 1012.5
20260507021455 54 0 5.0 10.0 0.00 0.28 0.00 56 1012.5
20260507020955 54 0 6.0 9.0 0.00 0.28 0.00 56 1012.5
20260507020456 54 0 5.0 9.0 0.00 0.28 0.00 56 1012.5
20260507015955 54 0 6.0 9.0 0.00 0.28 0.00 56 1012.5
20260507015719 54 0 4.0 6.0 0.00 0.28 0.00 56 1012.5
20260507015223 54 0 4.0 6.0 0.00 0.28 0.00 56 1012.5
20260507014455 54 0 3.0 5.0 0.00 0.28 0.00 56 1012.4
20260507014219 54 0 3.0 5.0 0.00 0.28 0.00 56 1012.4
20260507013455 54 0 3.0 5.0 0.00 0.28 0.00 56 1012.4
20260507012955 53 0 3.0 5.0 0.00 0.28 0.00 56 1012.5
20260507012454 53 0 2.0 5.0 0.00 0.28 0.00 57 1012.6
20260507011954 53 0 1.0 4.0 0.00 0.28 0.00 57 1012.5
20260507011454 53 0 2.0 4.0 0.00 0.28 0.00 57 1012.5
20260507010953 53 0 2.0 2.0 0.00 0.28 0.00 57 1012.4
20260507010453 53 0 0.0 2.0 0.00 0.28 0.00 56 1012.3
20260507005954 54 0 0.0 0.0 0.00 0.28 0.00 56 1012.4
20260507005941 54 0 0.0 0.0 0.00 0.28 0.00 56 1012.4
20260507004953 54 0 0.0 2.0 0.00 0.28 0.00 56 1012.4
20260507004453 54 0 0.0 2.0 0.00 0.28 0.00 56 1012.4
20260507003953 54 0 1.0 2.0 0.00 0.28 0.00 56 1012.3
20260507003453 55 0 0.0 0.0 0.00 0.28 0.00 55 1012.2
20260507002954 55 0 0.0 1.0 0.00 0.29 0.00 55 1012.2
20260507002716 55 0 0.0 1.0 0.00 0.29 0.00 55 1012.1
20260507002211 55 0 0.0 0.0 0.00 0.29 0.00 55 1012.1
20260507001453 55 0 0.0 0.0 0.00 0.30 0.00 55 1012.0
20260507001211 55 0 0.0 0.0 0.00 0.30 0.00 54 1012.0
20260507000453 55 0 0.0 0.0 0.00 0.30 0.00 54 1012.0
20260506235952 56 0 0.0 0.0 0.00 0.30 0.00 54 1011.9
20260506235453 56 0 0.0 3.0 0.00 0.30 0.00 54 1011.9
20260506234952 56 0 0.0 3.0 0.00 0.30 0.00 54 1011.9
20260506234452 56 0 2.0 3.0 0.00 0.30 0.00 54 1011.9
20260506233952 56 0 1.0 2.0 0.00 0.30 0.00 53 1011.9
20260506233452 56 0 0.0 0.0 0.00 0.30 0.00 53 1011.9
20260506232952 56 0 0.0 0.0 0.00 0.30 0.00 53 1011.9
20260506232452 56 0 0.0 2.0 0.00 0.30 0.00 53 1011.8
20260506231952 56 0 0.0 3.0 0.00 0.30 0.00 53 1011.8
20260506231717 57 0 2.0 3.0 0.00 0.30 0.00 53 1011.8
20260506230951 57 0 1.0 3.0 0.00 0.30 0.00 53 1011.8
20260506230451 57 0 2.0 3.0 0.00 0.30 0.00 53 1011.8
20260506225951 57 0 1.0 7.0 0.00 0.30 0.00 53 1011.8
20260506225450 57 0 4.0 7.0 0.00 0.30 0.00 53 1011.8
20260506224951 57 0 1.0 4.0 0.00 0.30 0.00 53 1011.8
20260506224451 57 0 3.0 4.0 0.00 0.30 0.00 53 1011.8
20260506223951 57 0 1.0 5.0 0.00 0.30 0.00 53 1011.8
20260506223450 57 0 4.0 6.0 0.00 0.30 0.00 52 1011.6
20260506222951 57 0 5.0 6.0 0.00 0.30 0.00 52 1011.6
20260506222450 57 0 3.0 6.0 0.00 0.30 0.00 52 1011.5
20260506221950 57 0 4.0 7.0 0.00 0.30 0.00 52 1011.6
20260506221451 58 0 4.0 9.0 0.00 0.30 0.00 52 1011.6
20260506220950 57 0 5.0 9.0 0.00 0.30 0.00 52 1011.5
20260506220450 58 0 5.0 9.0 0.00 0.30 0.00 52 1011.5
20260506215950 58 0 5.0 9.0 0.00 0.30 0.30 52 1011.5
20260506215929 58 0 4.0 9.0 0.00 0.30 0.30 52 1011.3
20260506214950 58 0 6.0 9.0 0.00 0.30 0.30 52 1011.5
20260506214449 58 0 4.0 7.0 0.00 0.30 0.30 53 1011.3
20260506213949 58 0 4.0 10.0 0.00 0.30 0.30 53 1011.3
20260506213449 58 0 6.0 10.0 0.00 0.30 0.30 53 1011.3
20260506212949 58 0 5.0 9.0 0.00 0.30 0.30 53 1011.3
20260506212451 58 0 4.0 9.0 0.00 0.30 0.30 53 1011.3
20260506212211 58 0 4.0 7.0 0.00 0.30 0.30 53 1011.5
20260506211451 58 0 4.0 7.0 0.00 0.30 0.30 53 1011.3
20260506210950 58 0 3.0 6.0 0.00 0.30 0.30 53 1011.3
20260506210450 58 0 4.0 6.0 0.00 0.30 0.30 53 1011.3
20260506210209 58 0 3.0 7.0 0.00 0.30 0.30 53 1011.3
20260506205459 58 0 4.0 7.0 0.00 0.30 0.30 53 1011.2
20260506204950 58 0 5.0 10.0 0.00 0.30 0.30 53 1011.1
20260506204450 58 0 5.0 10.0 0.00 0.30 0.30 53 1011.2
20260506203959 58 0 5.0 9.0 0.00 0.30 0.30 53 1011.1
20260506203449 58 0 6.0 9.0 0.00 0.30 0.30 53 1011.0
20260506202949 58 0 5.0 10.0 0.00 0.30 0.30 53 1010.9
20260506202449 58 0 7.0 10.0 0.00 0.30 0.30 53 1010.9
20260506201949 58 0 5.0 13.0 0.00 0.30 0.30 54 1010.8
20260506201450 59 0 9.0 13.0 0.00 0.30 0.30 54 1010.7
20260506200949 59 0 6.0 11.0 0.00 0.30 0.30 54 1010.6
20260506200451 59 0 6.0 12.0 0.00 0.30 0.30 54 1010.6
20260506200233 59 0 5.0 12.0 0.00 0.30 0.30 54 1010.4
20260506195448 59 0 6.0 11.0 0.00 0.30 0.30 54 1010.3
20260506194959 59 0 6.0 10.0 0.00 0.30 0.30 55 1010.2
20260506194458 59 0 3.0 7.0 0.00 0.30 0.30 55 1010.1
20260506194212 59 0 5.0 11.0 0.00 0.30 0.30 55 1010.0
20260506193448 59 0 7.0 11.0 0.00 0.30 0.30 55 1009.8
20260506192948 59 0 7.0 14.0 0.00 0.30 0.30 55 1009.6
20260506192448 59 0 7.0 14.0 0.00 0.30 0.30 55 1009.5
20260506191959 59 0 7.0 15.0 0.00 0.30 0.30 55 1009.5
20260506191448 60 0 7.0 15.0 0.00 0.30 0.30 55 1009.5
20260506190947 60 0 8.0 14.0 0.00 0.30 0.30 55 1009.3
20260506190447 60 0 9.0 14.0 0.00 0.30 0.30 55 1009.2
20260506185947 60 0 9.0 12.0 0.00 0.30 0.30 55 1009.1
20260506185448 61 0 9.0 12.0 0.00 0.30 0.30 55 1009.1
20260506184947 61 0 8.0 12.0 0.00 0.30 0.30 55 1009.0
20260506184447 61 0 7.0 11.0 0.00 0.30 0.30 54 1008.8
20260506183947 62 0 6.0 10.0 0.00 0.30 0.30 54 1008.7
20260506183706 62 0 5.0 11.0 0.00 0.30 0.30 53 1008.6
20260506182946 62 0 4.0 11.0 0.00 0.30 0.30 53 1008.4
20260506182447 63 0 7.0 11.0 0.00 0.30 0.30 52 1008.3
20260506181947 63 0 5.0 12.0 0.00 0.30 0.30 51 1008.2
20260506181446 63 0 9.0 12.0 0.00 0.30 0.30 50 1008.0
20260506180946 64 0 6.0 11.0 0.00 0.30 0.30 50 1007.9
20260506180446 64 0 8.0 13.0 0.00 0.30 0.30 49 1007.9
20260506175946 64 0 6.0 13.0 0.00 0.30 0.30 49 1007.8
20260506175446 64 0 8.0 13.0 0.00 0.30 0.30 48 1007.8
20260506174945 64 0 9.0 13.0 0.00 0.30 0.30 48 1007.7
20260506174446 65 0 6.0 11.0 0.00 0.30 0.30 47 1007.6
20260506173946 65 0 4.0 6.0 0.00 0.30 0.30 45 1007.6
20260506173446 65 0 4.0 6.0 0.00 0.30 0.30 44 1007.4
20260506172945 65 0 4.0 10.0 0.00 0.30 0.30 43 1007.3
20260506172445 65 0 4.0 10.0 0.00 0.30 0.30 42 1007.2
20260506171945 65 0 6.0 10.0 0.00 0.30 0.30 41 1007.2
20260506171445 66 0 6.0 10.0 0.00 0.30 0.30 41 1007.0
20260506171208 66 0 6.0 9.0 0.00 0.30 0.30 43 1006.9
20260506170444 66 0 4.0 9.0 0.00 0.30 0.30 42 1006.8
20260506165945 66 0 6.0 9.0 0.00 0.30 0.30 42 1006.8
20260506165704 66 0 5.0 9.0 0.00 0.30 0.30 42 1006.8
20260506164944 66 0 5.0 10.0 0.00 0.30 0.30 42 1006.8
20260506164443 66 0 6.0 10.0 0.00 0.30 0.30 43 1006.9
20260506163944 66 0 6.0 13.0 0.00 0.30 0.30 45 1006.9
20260506163444 66 0 6.0 13.0 0.00 0.30 0.30 46 1006.8
20260506162944 66 0 7.0 9.0 0.00 0.30 0.30 47 1006.8
20260506162444 66 0 6.0 9.0 0.00 0.30 0.30 47 1006.8
20260506161943 67 0 4.0 11.0 0.00 0.30 0.30 47 1006.7
20260506161444 67 0 7.0 11.0 0.00 0.30 0.30 46 1006.6
20260506160943 67 0 6.0 11.0 0.00 0.30 0.30 46 1006.6
20260506160443 68 7 6.0 12.0 0.00 0.30 0.30 46 1006.5
20260506155943 69 0 8.0 12.0 0.00 0.30 0.30 46 1006.6
20260506155444 69 0 6.0 13.0 0.00 0.30 0.30 46 1006.6
20260506154943 68 0 7.0 13.0 0.00 0.30 0.30 45 1006.6
20260506154442 69 0 7.0 12.0 0.00 0.30 0.30 45 1006.6
20260506153943 69 0 6.0 12.0 0.00 0.30 0.30 45 1006.6
20260506153443 69 0 5.0 13.0 0.00 0.30 0.30 45 1006.6
20260506153205 69 0 7.0 16.0 0.00 0.30 0.30 45 1006.6
20260506152443 69 0 7.0 16.0 0.00 0.30 0.30 44 1006.7
20260506151941 70 0 10.0 13.0 0.00 0.30 0.30 44 1006.7
20260506151442 71 0 6.0 13.0 0.00 0.30 0.30 43 1006.7
20260506150942 71 0 6.0 12.0 0.00 0.30 0.30 45 1006.7
20260506150442 70 0 6.0 15.0 0.00 0.30 0.30 44 1006.7
20260506145942 71 0 10.0 15.0 0.00 0.30 0.30 44 1006.7
20260506145442 71 0 7.0 13.0 0.00 0.30 0.30 42 1006.7
20260506145205 71 0 6.0 11.0 0.00 0.30 0.30 41 1006.7
20260506144442 71 0 6.0 11.0 0.00 0.30 0.30 42 1006.7
20260506144200 71 0 5.0 7.0 0.00 0.30 0.30 42 1006.6
20260506143708 71 0 5.0 11.0 0.00 0.30 0.30 41 1006.7
20260506142941 72 340 5.0 11.0 0.00 0.30 0.30 39 1006.7
20260506142442 73 45 1.0 10.0 0.00 0.30 0.30 37 1006.7
20260506142205 71 97 5.0 10.0 0.00 0.30 0.30 37 1006.8
20260506141441 72 96 5.0 7.0 0.00 0.30 0.30 38 1006.8
20260506140941 72 86 3.0 5.0 0.00 0.30 0.30 37 1006.9
20260506140440 73 41 2.0 5.0 0.00 0.30 0.30 38 1006.9
20260506135940 71 87 2.0 5.0 0.00 0.30 0.30 39 1007.0
20260506135439 70 182 2.0 6.0 0.00 0.30 0.30 38 1007.0
20260506134938 70 189 3.0 6.0 0.00 0.30 0.30 40 1007.1
20260506134439 70 199 3.0 6.0 0.00 0.30 0.30 41 1007.1
20260506133938 71 0 1.0 9.0 0.00 0.30 0.30 40 1007.2
20260506133439 70 65 6.0 9.0 0.00 0.30 0.30 42 1007.2
20260506132939 71 117 1.0 7.0 0.00 0.30 0.30 43 1007.2
20260506132708 70 87 4.0 7.0 0.00 0.30 0.30 42 1007.2
20260506131939 70 149 2.0 6.0 0.00 0.30 0.30 42 1007.2
20260506131705 69 114 2.0 6.0 0.00 0.30 0.30 45 1007.4
20260506130938 67 255 1.0 5.0 0.00 0.30 0.30 45 1007.3
20260506130438 69 234 2.0 5.0 0.00 0.30 0.30 43 1007.4
20260506125937 69 61 3.0 5.0 0.00 0.30 0.30 42 1007.3
20260506125438 70 0 2.0 5.0 0.00 0.30 0.30 41 1007.3
20260506124937 70 0 3.0 4.0 0.00 0.30 0.30 44 1007.4
20260506124438 68 0 0.0 6.0 0.00 0.30 0.30 44 1007.4
20260506124420 69 0 3.0 7.0 0.00 0.30 0.30 44 1007.4
20260506123438 69 0 4.0 7.0 0.00 0.30 0.30 46 1007.4
20260506122937 69 0 4.0 7.0 0.00 0.30 0.30 45 1007.3
20260506122437 68 0 2.0 9.0 0.00 0.30 0.30 45 1007.4
20260506121937 67 0 3.0 9.0 0.00 0.30 0.30 46 1007.3
20260506121436 68 0 4.0 7.0 0.00 0.30 0.30 46 1007.3
20260506121417 67 0 2.0 6.0 0.00 0.30 0.30 47 1007.4
20260506120437 68 0 3.0 7.0 0.00 0.30 0.30 46 1007.3
20260506115936 67 0 4.0 9.0 0.00 0.30 0.30 48 1007.6
20260506115437 67 0 3.0 9.0 0.00 0.30 0.30 47 1007.6
20260506115430 67 0 4.0 7.0 0.00 0.30 0.30 48 1007.4
20260506114436 65 0 3.0 6.0 0.00 0.30 0.30 47 1007.4
20260506113937 67 0 3.0 6.0 0.00 0.30 0.30 47 1007.6
20260506113436 67 0 2.0 5.0 0.00 0.30 0.30 48 1007.6
20260506112936 65 0 2.0 9.0 0.00 0.30 0.30 47 1007.6
20260506112700 65 0 4.0 9.0 0.00 0.30 0.30 48 1007.6
20260506111935 65 0 4.0 7.0 0.00 0.30 0.30 48 1007.7
20260506111435 65 0 6.0 7.0 0.00 0.30 0.30 50 1007.7
20260506110936 65 0 2.0 4.0 0.00 0.30 0.30 51 1007.7
20260506110435 65 0 2.0 5.0 0.00 0.30 0.30 49 1007.8
20260506110421 65 0 2.0 6.0 0.00 0.30 0.30 50 1007.8
20260506105701 65 0 3.0 6.0 0.00 0.30 0.30 50 1008.0
20260506104935 63 0 3.0 5.0 0.00 0.30 0.30 50 1008.0
20260506104435 64 0 3.0 5.0 0.00 0.30 0.30 49 1008.0
20260506103935 64 0 2.0 4.0 0.00 0.30 0.30 50 1008.0
20260506103434 63 0 1.0 6.0 0.00 0.30 0.30 51 1008.1
20260506102935 63 0 2.0 6.0 0.00 0.30 0.30 50 1008.1
20260506102434 63 0 4.0 6.0 0.00 0.30 0.30 50 1008.0
20260506102146 64 0 3.0 6.0 0.00 0.30 0.30 52 1008.1
20260506102132 64 0 1.0 6.0 0.00 0.30 0.30 50 1008.1
20260506101153 62 0 2.0 6.0 0.00 0.30 0.30 51 1008.2
20260506100434 62 0 4.0 7.0 0.00 0.30 0.30 51 1008.2
20260506095934 62 0 5.0 7.0 0.00 0.30 0.30 52 1008.2
20260506095433 62 0 2.0 7.0 0.00 0.30 0.30 51 1008.2
20260506094933 62 0 4.0 7.0 0.00 0.30 0.30 51 1008.2
20260506094433 62 0 4.0 7.0 0.00 0.31 0.30 53 1008.2
20260506093933 61 0 4.0 7.0 0.00 0.31 0.30 53 1008.3
20260506093434 61 0 4.0 6.0 0.00 0.31 0.30 52 1008.4
20260506092933 60 0 4.0 9.0 0.00 0.31 0.30 52 1008.4
20260506092434 60 0 4.0 9.0 0.00 0.31 0.30 53 1008.4
20260506091933 60 0 5.0 9.0 0.00 0.31 0.30 52 1008.5
20260506091652 60 0 4.0 7.0 0.00 0.31 0.30 54 1008.5
20260506090934 59 0 4.0 11.0 0.00 0.31 0.30 55 1008.6
20260506090434 58 0 6.0 11.0 0.00 0.32 0.30 58 1008.7
20260506090151 58 0 6.0 10.0 0.00 0.32 0.30 63 1008.6
20260506085434 57 0 6.0 10.0 0.00 0.33 0.30 66 1008.6
20260506084934 57 0 4.0 6.0 0.00 0.33 0.30 68 1008.6
20260506084434 56 0 4.0 6.0 0.00 0.33 0.30 67 1008.6
20260506083934 56 0 4.0 6.0 0.00 0.33 0.30 68 1008.7
20260506083433 55 0 4.0 6.0 0.00 0.34 0.30 68 1008.7
20260506082933 55 0 4.0 6.0 0.00 0.34 0.30 67 1008.7
20260506082433 55 0 4.0 6.0 0.00 0.34 0.30 68 1008.8
20260506082155 55 0 4.0 6.0 0.00 0.35 0.30 68 1008.7
20260506081433 55 0 1.0 4.0 0.00 0.35 0.30 68 1008.7
20260506080933 55 0 2.0 3.0 0.00 0.35 0.30 68 1008.8
20260506080433 55 0 2.0 3.0 0.00 0.35 0.30 68 1008.8
20260506080158 55 0 1.0 2.0 0.00 0.35 0.30 68 1008.7
20260506073432 55 0 0.0 3.0 0.00 0.35 0.30 68 1008.7
20260506072932 55 0 0.0 3.0 0.00 0.35 0.30 68 1008.7
20260506072432 55 0 1.0 3.0 0.00 0.35 0.30 68 1008.7
20260506071932 55 0 1.0 2.0 0.00 0.35 0.30 68 1008.6
20260506071433 55 0 1.0 1.0 0.00 0.35 0.30 68 1008.7
20260506070932 55 0 0.0 0.0 0.00 0.35 0.30 68 1008.7
20260506070432 55 0 0.0 0.0 0.00 0.35 0.30 68 1008.7
20260506062430 55 0 0.0 0.0 0.03 0.35 0.30 68 1009.1
20260506061931 55 0 0.0 0.0 0.06 0.35 0.30 68 1009.0
20260506061430 55 0 0.0 0.0 0.10 0.35 0.30 68 1009.1
20260506060930 54 0 0.0 2.0 0.15 0.35 0.30 68 1009.1
20260506060430 54 0 0.0 2.0 0.18 0.35 0.30 67 1009.1
20260506050929 54 0 1.0 2.0 0.09 0.16 0.13 66 1009.3
20260506050428 54 0 1.0 2.0 0.06 0.16 0.12 66 1009.4
20260506044929 54 0 0.0 1.0 0.06 0.10 0.10 66 1009.3
20260506044428 54 0 0.0 2.0 0.06 0.11 0.10 65 1009.4
20260506044155 54 0 0.0 3.0 0.06 0.11 0.10 65 1009.5
20260506043428 54 0 1.0 3.0 0.06 0.12 0.09 65 1009.5
20260506042928 54 0 2.0 3.0 0.06 0.13 0.09 65 1009.6
20260506042650 54 0 0.0 2.0 0.06 0.13 0.07 65 1009.6
20260506042144 54 0 1.0 2.0 0.05 0.14 0.07 65 1009.5
20260506041428 54 0 0.0 3.0 0.05 0.17 0.07 65 1009.5
20260506040927 55 0 0.0 3.0 0.05 0.17 0.06 64 1009.6
20260506040428 55 0 2.0 3.0 0.04 0.19 0.06 64 1009.5
20260506040151 55 0 2.0 3.0 0.04 0.17 0.06 64 1009.4
20260506035427 55 0 1.0 2.0 0.04 0.17 0.06 64 1009.6
20260506034927 55 0 0.0 1.0 0.03 0.19 0.05 64 1009.8
20260506034427 55 0 0.0 2.0 0.02 0.20 0.04 64 1009.7
20260506033927 55 0 2.0 2.0 0.02 0.22 0.04 63 1009.7
20260506033427 55 0 0.0 3.0 0.02 0.24 0.03 63 1009.8
20260506032926 55 0 1.0 3.0 0.01 0.25 0.02 63 1009.8
20260506032426 55 0 1.0 3.0 0.01 0.27 0.02 63 1009.8
20260506031927 55 0 1.0 4.0 0.01 0.28 0.02 63 1009.9
20260506031427 55 0 3.0 4.0 0.01 0.30 0.02 63 1009.9
20260506030925 55 0 0.0 0.0 0.00 0.30 0.02 62 1010.1
20260506030426 55 0 0.0 0.0 0.00 0.31 0.02 62 1010.2
20260506030411 55 0 0.0 0.0 0.00 0.31 0.02 62 1010.3